Data supplied by UK-AIR on 22/3/2019
All Data GMT hour ending 
Status: R =Ratified P=Provisional,P*=As supplied
,,Sheffield Barnsley Road,,,,,,,,,,,,,,,,,,,,,,,
Date,time,"Nitric oxide",status,unit,"Nitrogen dioxide",status,unit,"Nitrogen oxides as nitrogen dioxide",status,unit,"PM<sub>2.5</sub> particulate matter (Hourly measured)",status,unit
 
01-01-2018,01:00,10.62218,R,ugm-3,16.33048,R,ugm-3,32.61759,R,ugm-3,9.000,R,ugm-3 (BAM)
01-01-2018,02:00,13.86784,R,ugm-3,13.97093,R,ugm-3,35.23465,R,ugm-3,8.000,R,ugm-3 (BAM)
01-01-2018,03:00,8.12470,R,ugm-3,16.74493,R,ugm-3,29.20263,R,ugm-3,5.000,R,ugm-3 (BAM)
01-01-2018,04:00,14.44743,R,ugm-3,28.40166,R,ugm-3,50.55407,R,ugm-3,14.000,R,ugm-3 (BAM)
01-01-2018,05:00,5.59561,R,ugm-3,13.20248,R,ugm-3,21.78229,R,ugm-3,7.000,R,ugm-3 (BAM)
01-01-2018,06:00,4.77366,R,ugm-3,12.83510,R,ugm-3,20.15461,R,ugm-3,2.000,R,ugm-3 (BAM)
01-01-2018,07:00,6.44918,R,ugm-3,18.69168,R,ugm-3,28.58028,R,ugm-3,4.000,R,ugm-3 (BAM)
01-01-2018,08:00,29.21099,R,ugm-3,44.78115,R,ugm-3,89.57070,R,ugm-3,6.000,R,ugm-3 (BAM)
01-01-2018,09:00,17.41911,R,ugm-3,30.35590,R,ugm-3,57.06482,R,ugm-3,6.000,R,ugm-3 (BAM)
01-01-2018,10:00,7.71372,R,ugm-3,18.76341,R,ugm-3,30.59096,R,ugm-3,6.000,R,ugm-3 (BAM)
01-01-2018,11:00,13.18288,R,ugm-3,23.01601,R,ugm-3,43.22947,R,ugm-3,6.000,R,ugm-3 (BAM)
01-01-2018,12:00,12.07640,R,ugm-3,24.32959,R,ugm-3,42.84649,R,ugm-3,6.000,R,ugm-3 (BAM)
01-01-2018,13:00,23.89990,R,ugm-3,33.48820,R,ugm-3,70.13420,R,ugm-3,10.000,R,ugm-3 (BAM)
01-01-2018,14:00,21.81340,R,ugm-3,32.57036,R,ugm-3,66.01710,R,ugm-3,7.000,R,ugm-3 (BAM)
01-01-2018,15:00,25.79672,R,ugm-3,39.77143,R,ugm-3,79.32584,R,ugm-3,6.000,R,ugm-3 (BAM)
01-01-2018,16:00,25.44897,R,ugm-3,38.43759,R,ugm-3,77.45879,R,ugm-3,8.000,R,ugm-3 (BAM)
01-01-2018,17:00,18.93656,R,ugm-3,30.51857,R,ugm-3,59.55423,R,ugm-3,7.000,R,ugm-3 (BAM)
01-01-2018,18:00,15.42745,R,ugm-3,26.37237,R,ugm-3,50.02746,R,ugm-3,6.000,R,ugm-3 (BAM)
01-01-2018,19:00,8.34600,R,ugm-3,12.91088,R,ugm-3,25.70789,R,ugm-3,5.000,R,ugm-3 (BAM)
01-01-2018,20:00,8.66213,R,ugm-3,7.44733,R,ugm-3,20.72908,R,ugm-3,7.000,R,ugm-3 (BAM)
01-01-2018,21:00,8.88343,R,ugm-3,12.32619,R,ugm-3,25.94726,R,ugm-3,6.000,R,ugm-3 (BAM)
01-01-2018,22:00,4.39429,R,ugm-3,9.63480,R,ugm-3,16.37262,R,ugm-3,3.000,R,ugm-3 (BAM)
01-01-2018,23:00,6.38595,R,ugm-3,11.22467,R,ugm-3,21.01632,R,ugm-3,2.000,R,ugm-3 (BAM)
01-01-2018,24:00,6.41757,R,ugm-3,9.78787,R,ugm-3,19.62800,R,ugm-3,5.000,R,ugm-3 (BAM)
02-01-2018,01:00,7.50525,R,ugm-3,7.32972,R,ugm-3,18.83761,R,ugm-3,5.000,R,ugm-3 (BAM)
02-01-2018,02:00,1.81307,R,ugm-3,2.71165,R,ugm-3,5.49164,R,ugm-3,4.000,R,ugm-3 (BAM)
02-01-2018,03:00,1.48629,R,ugm-3,3.56390,R,ugm-3,5.84285,R,ugm-3,5.000,R,ugm-3 (BAM)
02-01-2018,04:00,0.79058,R,ugm-3,5.01378,R,ugm-3,6.22599,R,ugm-3,8.000,R,ugm-3 (BAM)
02-01-2018,05:00,1.35980,R,ugm-3,4.52413,R,ugm-3,6.60913,R,ugm-3,8.000,R,ugm-3 (BAM)
02-01-2018,06:00,9.61347,R,ugm-3,15.38377,R,ugm-3,30.12421,R,ugm-3,11.000,R,ugm-3 (BAM)
02-01-2018,07:00,31.90785,R,ugm-3,41.73529,R,ugm-3,90.65998,R,ugm-3,8.000,R,ugm-3 (BAM)
02-01-2018,08:00,62.77213,R,ugm-3,62.08243,R,ugm-3,158.33169,R,ugm-3,10.000,R,ugm-3 (BAM)
02-01-2018,09:00,118.74526,R,ugm-3,90.14586,R,ugm-3,272.21939,R,ugm-3,14.000,R,ugm-3 (BAM)
02-01-2018,10:00,35.92400,R,ugm-3,46.16146,R,ugm-3,101.24416,R,ugm-3,11.000,R,ugm-3 (BAM)
02-01-2018,11:00,42.37514,R,ugm-3,47.23717,R,ugm-3,112.21148,R,ugm-3,10.000,R,ugm-3 (BAM)
02-01-2018,12:00,37.94789,R,ugm-3,59.62892,R,ugm-3,117.81487,R,ugm-3,21.000,R,ugm-3 (BAM)
02-01-2018,13:00,44.77851,R,ugm-3,48.86809,R,ugm-3,117.52751,R,ugm-3,14.000,R,ugm-3 (BAM)
02-01-2018,14:00,62.36103,R,ugm-3,76.36206,R,ugm-3,171.98097,R,ugm-3,9.000,R,ugm-3 (BAM)
02-01-2018,15:00,106.91817,R,ugm-3,75.90534,R,ugm-3,239.84425,R,ugm-3,10.000,R,ugm-3 (BAM)
02-01-2018,16:00,128.70658,R,ugm-3,121.08804,R,ugm-3,318.43538,R,ugm-3,14.000,R,ugm-3 (BAM)
02-01-2018,17:00,125.32290,R,ugm-3,94.09272,R,ugm-3,286.25181,R,ugm-3,18.000,R,ugm-3 (BAM)
02-01-2018,18:00,90.41084,R,ugm-3,72.09775,R,ugm-3,210.72578,R,ugm-3,11.000,R,ugm-3 (BAM)
02-01-2018,19:00,28.14468,R,ugm-3,41.94990,R,ugm-3,85.10448,R,ugm-3,10.000,R,ugm-3 (BAM)
02-01-2018,20:00,30.80103,R,ugm-3,50.08940,R,ugm-3,97.31699,R,ugm-3,11.000,R,ugm-3 (BAM)
02-01-2018,21:00,19.41667,R,ugm-3,37.46887,R,ugm-3,67.24068,R,ugm-3,10.000,R,ugm-3 (BAM)
02-01-2018,22:00,10.15106,R,ugm-3,20.68967,R,ugm-3,36.25441,R,ugm-3,7.000,R,ugm-3 (BAM)
02-01-2018,23:00,7.39984,R,ugm-3,17.29329,R,ugm-3,28.63955,R,ugm-3,4.000,R,ugm-3 (BAM)
02-01-2018,24:00,5.56569,R,ugm-3,13.97540,R,ugm-3,22.50935,R,ugm-3,4.000,R,ugm-3 (BAM)
03-01-2018,01:00,5.86262,R,ugm-3,4.61757,R,ugm-3,13.60680,R,ugm-3,7.000,R,ugm-3 (BAM)
03-01-2018,02:00,2.48845,R,ugm-3,4.04188,R,ugm-3,7.85745,R,ugm-3,5.000,R,ugm-3 (BAM)
03-01-2018,03:00,1.61328,R,ugm-3,4.23392,R,ugm-3,6.70758,R,ugm-3,4.000,R,ugm-3 (BAM)
03-01-2018,04:00,0.41123,R,ugm-3,3.15445,R,ugm-3,3.78499,R,ugm-3,4.000,R,ugm-3 (BAM)
03-01-2018,05:00,0.75919,R,ugm-3,1.95016,R,ugm-3,3.11423,R,ugm-3,5.000,R,ugm-3 (BAM)
03-01-2018,06:00,4.39697,R,ugm-3,6.48159,R,ugm-3,13.22351,R,ugm-3,8.000,R,ugm-3 (BAM)
03-01-2018,07:00,6.76943,R,ugm-3,14.48630,R,ugm-3,24.86595,R,ugm-3,7.000,R,ugm-3 (BAM)
03-01-2018,08:00,12.43171,R,ugm-3,20.60884,R,ugm-3,39.67053,R,ugm-3,5.000,R,ugm-3 (BAM)
03-01-2018,09:00,16.89195,R,ugm-3,23.63963,R,ugm-3,49.54026,R,ugm-3,6.000,R,ugm-3 (BAM)
03-01-2018,10:00,20.94095,R,ugm-3,27.10932,R,ugm-3,59.21833,R,ugm-3,6.000,R,ugm-3 (BAM)
03-01-2018,11:00,13.69703,R,ugm-3,16.65645,R,ugm-3,37.65826,R,ugm-3,6.000,R,ugm-3 (BAM)
03-01-2018,12:00,17.42970,R,ugm-3,22.28806,R,ugm-3,49.01323,R,ugm-3,9.000,R,ugm-3 (BAM)
03-01-2018,13:00,,,,,,,,,,,,
03-01-2018,14:00,18.97971,R,ugm-3,21.92368,R,ugm-3,51.02551,R,ugm-3,12.000,R,ugm-3 (BAM)
03-01-2018,15:00,23.34505,R,ugm-3,27.68720,R,ugm-3,63.48244,R,ugm-3,7.000,R,ugm-3 (BAM)
03-01-2018,16:00,21.73177,R,ugm-3,30.20876,R,ugm-3,63.53035,R,ugm-3,8.000,R,ugm-3 (BAM)
03-01-2018,17:00,31.15836,R,ugm-3,42.82473,R,ugm-3,90.60022,R,ugm-3,9.000,R,ugm-3 (BAM)
03-01-2018,18:00,31.75939,R,ugm-3,43.91544,R,ugm-3,92.61249,R,ugm-3,10.000,R,ugm-3 (BAM)
03-01-2018,19:00,41.97680,R,ugm-3,40.61007,R,ugm-3,104.97360,R,ugm-3,8.000,R,ugm-3 (BAM)
03-01-2018,20:00,24.57873,R,ugm-3,26.84963,R,ugm-3,64.53648,R,ugm-3,12.000,R,ugm-3 (BAM)
03-01-2018,21:00,23.40831,R,ugm-3,26.96734,R,ugm-3,62.85959,R,ugm-3,8.000,R,ugm-3 (BAM)
03-01-2018,22:00,17.46134,R,ugm-3,23.14987,R,ugm-3,49.92355,R,ugm-3,8.000,R,ugm-3 (BAM)
03-01-2018,23:00,14.45622,R,ugm-3,21.62502,R,ugm-3,43.79090,R,ugm-3,12.000,R,ugm-3 (BAM)
03-01-2018,24:00,8.06638,R,ugm-3,19.10943,R,ugm-3,31.47771,R,ugm-3,7.000,R,ugm-3 (BAM)
04-01-2018,01:00,6.41287,R,ugm-3,14.13223,R,ugm-3,23.96516,R,ugm-3,8.000,R,ugm-3 (BAM)
04-01-2018,02:00,1.43446,R,ugm-3,8.02566,R,ugm-3,10.22514,R,ugm-3,11.000,R,ugm-3 (BAM)
04-01-2018,03:00,8.51183,R,ugm-3,17.95964,R,ugm-3,31.01092,R,ugm-3,10.000,R,ugm-3 (BAM)
04-01-2018,04:00,5.47415,R,ugm-3,8.66962,R,ugm-3,17.06320,R,ugm-3,10.000,R,ugm-3 (BAM)
04-01-2018,05:00,10.69516,R,ugm-3,20.84285,R,ugm-3,37.24186,R,ugm-3,12.000,R,ugm-3 (BAM)
04-01-2018,06:00,36.86348,R,ugm-3,45.76010,R,ugm-3,102.28331,R,ugm-3,12.000,R,ugm-3 (BAM)
04-01-2018,07:00,30.31349,R,ugm-3,45.92963,R,ugm-3,92.40967,R,ugm-3,9.000,R,ugm-3 (BAM)
04-01-2018,08:00,56.22867,R,ugm-3,61.55309,R,ugm-3,147.76919,R,ugm-3,12.000,R,ugm-3 (BAM)
04-01-2018,09:00,49.48883,R,ugm-3,54.53660,R,ugm-3,130.41841,R,ugm-3,9.000,R,ugm-3 (BAM)
04-01-2018,10:00,55.46926,R,ugm-3,78.34280,R,ugm-3,163.39447,R,ugm-3,11.000,R,ugm-3 (BAM)
04-01-2018,11:00,50.53303,R,ugm-3,79.58477,R,ugm-3,157.06767,R,ugm-3,9.000,R,ugm-3 (BAM)
04-01-2018,12:00,67.24026,R,ugm-3,80.56871,R,ugm-3,183.66900,R,ugm-3,12.000,R,ugm-3 (BAM)
04-01-2018,13:00,95.37041,R,ugm-3,79.47130,R,ugm-3,225.70390,R,ugm-3,20.000,R,ugm-3 (BAM)
04-01-2018,14:00,38.35068,R,ugm-3,49.42312,R,ugm-3,108.22667,R,ugm-3,15.000,R,ugm-3 (BAM)
04-01-2018,15:00,39.64802,R,ugm-3,41.44260,R,ugm-3,102.23538,R,ugm-3,12.000,R,ugm-3 (BAM)
04-01-2018,16:00,17.08694,R,ugm-3,28.34511,R,ugm-3,54.54471,R,ugm-3,7.000,R,ugm-3 (BAM)
04-01-2018,17:00,15.50481,R,ugm-3,20.32219,R,ugm-3,44.09590,R,ugm-3,4.000,R,ugm-3 (BAM)
04-01-2018,18:00,16.32752,R,ugm-3,17.95833,R,ugm-3,42.99350,R,ugm-3,4.000,R,ugm-3 (BAM)
04-01-2018,19:00,17.37172,R,ugm-3,29.15463,R,ugm-3,55.79090,R,ugm-3,2.000,R,ugm-3 (BAM)
04-01-2018,20:00,18.09949,R,ugm-3,22.04744,R,ugm-3,49.79961,R,ugm-3,4.000,R,ugm-3 (BAM)
04-01-2018,21:00,19.08041,R,ugm-3,30.17738,R,ugm-3,59.43360,R,ugm-3,4.000,R,ugm-3 (BAM)
04-01-2018,22:00,16.29587,R,ugm-3,31.57112,R,ugm-3,56.55778,R,ugm-3,8.000,R,ugm-3 (BAM)
04-01-2018,23:00,28.95286,R,ugm-3,39.96360,R,ugm-3,84.35737,R,ugm-3,6.000,R,ugm-3 (BAM)
04-01-2018,24:00,10.03066,R,ugm-3,25.07306,R,ugm-3,40.45319,R,ugm-3,5.000,R,ugm-3 (BAM)
05-01-2018,01:00,25.65930,R,ugm-3,36.99170,R,ugm-3,76.33541,R,ugm-3,6.000,R,ugm-3 (BAM)
05-01-2018,02:00,9.53783,R,ugm-3,35.94614,R,ugm-3,50.57061,R,ugm-3,3.000,R,ugm-3 (BAM)
05-01-2018,03:00,13.10397,R,ugm-3,32.89159,R,ugm-3,52.98406,R,ugm-3,3.000,R,ugm-3 (BAM)
05-01-2018,04:00,4.81112,R,ugm-3,19.76240,R,ugm-3,27.13935,R,ugm-3,5.000,R,ugm-3 (BAM)
05-01-2018,05:00,5.12764,R,ugm-3,15.68087,R,ugm-3,23.54314,R,ugm-3,5.000,R,ugm-3 (BAM)
05-01-2018,06:00,14.11683,R,ugm-3,22.08432,R,ugm-3,43.72983,R,ugm-3,6.000,R,ugm-3 (BAM)
05-01-2018,07:00,32.91817,R,ugm-3,33.53348,R,ugm-3,84.00731,R,ugm-3,5.000,R,ugm-3 (BAM)
05-01-2018,08:00,88.62585,R,ugm-3,69.04455,R,ugm-3,204.93563,R,ugm-3,6.000,R,ugm-3 (BAM)
05-01-2018,09:00,105.08494,R,ugm-3,84.94820,R,ugm-3,246.07619,R,ugm-3,16.000,R,ugm-3 (BAM)
05-01-2018,10:00,137.81320,R,ugm-3,96.95590,R,ugm-3,308.26653,R,ugm-3,22.000,R,ugm-3 (BAM)
05-01-2018,11:00,130.97635,R,ugm-3,101.58911,R,ugm-3,302.41671,R,ugm-3,20.000,R,ugm-3 (BAM)
05-01-2018,12:00,117.39760,R,ugm-3,91.96171,R,ugm-3,271.96886,R,ugm-3,19.000,R,ugm-3 (BAM)
05-01-2018,13:00,110.62406,R,ugm-3,83.07202,R,ugm-3,252.69321,R,ugm-3,18.000,R,ugm-3 (BAM)
05-01-2018,14:00,96.79209,R,ugm-3,82.03222,R,ugm-3,230.44470,R,ugm-3,18.000,R,ugm-3 (BAM)
05-01-2018,15:00,108.97815,R,ugm-3,82.47900,R,ugm-3,249.57650,R,ugm-3,27.000,R,ugm-3 (BAM)
05-01-2018,16:00,169.21208,R,ugm-3,103.47392,R,ugm-3,362.92882,R,ugm-3,31.000,R,ugm-3 (BAM)
05-01-2018,17:00,149.90430,R,ugm-3,89.06124,R,ugm-3,318.91129,R,ugm-3,21.000,R,ugm-3 (BAM)
05-01-2018,18:00,165.63539,R,ugm-3,86.46984,R,ugm-3,340.44056,R,ugm-3,28.000,R,ugm-3 (BAM)
05-01-2018,19:00,159.77975,R,ugm-3,97.74993,R,ugm-3,342.74213,R,ugm-3,33.000,R,ugm-3 (BAM)
05-01-2018,20:00,185.44960,R,ugm-3,106.05173,R,ugm-3,390.40381,R,ugm-3,27.000,R,ugm-3 (BAM)
05-01-2018,21:00,221.50133,R,ugm-3,99.25000,R,ugm-3,438.88063,R,ugm-3,30.000,R,ugm-3 (BAM)
05-01-2018,22:00,141.42154,R,ugm-3,72.33934,R,ugm-3,289.18268,R,ugm-3,49.000,R,ugm-3 (BAM)
05-01-2018,23:00,201.37060,R,ugm-3,100.10037,R,ugm-3,408.86432,R,ugm-3,37.000,R,ugm-3 (BAM)
05-01-2018,24:00,114.54892,R,ugm-3,66.64897,R,ugm-3,242.28819,R,ugm-3,18.000,R,ugm-3 (BAM)
06-01-2018,01:00,62.90126,R,ugm-3,53.34215,R,ugm-3,149.78941,R,ugm-3,15.000,R,ugm-3 (BAM)
06-01-2018,02:00,31.57728,R,ugm-3,47.13529,R,ugm-3,95.55311,R,ugm-3,14.000,R,ugm-3 (BAM)
06-01-2018,03:00,18.61708,R,ugm-3,30.59927,R,ugm-3,59.14507,R,ugm-3,12.000,R,ugm-3 (BAM)
06-01-2018,04:00,5.76243,R,ugm-3,17.83484,R,ugm-3,26.67045,R,ugm-3,10.000,R,ugm-3 (BAM)
06-01-2018,05:00,5.47748,R,ugm-3,18.41567,R,ugm-3,26.81435,R,ugm-3,8.000,R,ugm-3 (BAM)
06-01-2018,06:00,7.47216,R,ugm-3,19.09873,R,ugm-3,30.55589,R,ugm-3,6.000,R,ugm-3 (BAM)
06-01-2018,07:00,8.07374,R,ugm-3,19.61539,R,ugm-3,31.99494,R,ugm-3,6.000,R,ugm-3 (BAM)
06-01-2018,08:00,15.45091,R,ugm-3,28.93029,R,ugm-3,52.62136,R,ugm-3,9.000,R,ugm-3 (BAM)
06-01-2018,09:00,26.18423,R,ugm-3,37.56026,R,ugm-3,77.70885,R,ugm-3,9.000,R,ugm-3 (BAM)
06-01-2018,10:00,20.07352,R,ugm-3,35.51339,R,ugm-3,66.29237,R,ugm-3,5.000,R,ugm-3 (BAM)
06-01-2018,11:00,29.25542,R,ugm-3,32.13164,R,ugm-3,76.98933,R,ugm-3,4.000,R,ugm-3 (BAM)
06-01-2018,12:00,21.43498,R,ugm-3,26.71028,R,ugm-3,59.57679,R,ugm-3,7.000,R,ugm-3 (BAM)
06-01-2018,13:00,33.43476,R,ugm-3,36.85208,R,ugm-3,88.11800,R,ugm-3,7.000,R,ugm-3 (BAM)
06-01-2018,14:00,30.45856,R,ugm-3,38.58538,R,ugm-3,85.28786,R,ugm-3,6.000,R,ugm-3 (BAM)
06-01-2018,15:00,28.30557,R,ugm-3,39.91989,R,ugm-3,83.32116,R,ugm-3,9.000,R,ugm-3 (BAM)
06-01-2018,16:00,31.09180,R,ugm-3,35.07211,R,ugm-3,82.74554,R,ugm-3,11.000,R,ugm-3 (BAM)
06-01-2018,17:00,35.65108,R,ugm-3,46.40524,R,ugm-3,101.06947,R,ugm-3,8.000,R,ugm-3 (BAM)
06-01-2018,18:00,49.17063,R,ugm-3,59.68517,R,ugm-3,135.07909,R,ugm-3,16.000,R,ugm-3 (BAM)
06-01-2018,19:00,44.19974,R,ugm-3,62.55822,R,ugm-3,130.33021,R,ugm-3,12.000,R,ugm-3 (BAM)
06-01-2018,20:00,37.51912,R,ugm-3,48.52967,R,ugm-3,106.05819,R,ugm-3,13.000,R,ugm-3 (BAM)
06-01-2018,21:00,40.84360,R,ugm-3,62.95536,R,ugm-3,125.58134,R,ugm-3,11.000,R,ugm-3 (BAM)
06-01-2018,22:00,30.99681,R,ugm-3,55.84418,R,ugm-3,103.37196,R,ugm-3,11.000,R,ugm-3 (BAM)
06-01-2018,23:00,20.64343,R,ugm-3,39.29248,R,ugm-3,70.94530,R,ugm-3,11.000,R,ugm-3 (BAM)
06-01-2018,24:00,16.02082,R,ugm-3,38.75340,R,ugm-3,63.31832,R,ugm-3,9.000,R,ugm-3 (BAM)
07-01-2018,01:00,14.14653,R,ugm-3,33.46257,R,ugm-3,55.15361,R,ugm-3,8.000,R,ugm-3 (BAM)
07-01-2018,02:00,6.29204,R,ugm-3,24.13553,R,ugm-3,33.78318,R,ugm-3,7.000,R,ugm-3 (BAM)
07-01-2018,03:00,6.55597,R,ugm-3,19.79587,R,ugm-3,29.84821,R,ugm-3,5.000,R,ugm-3 (BAM)
07-01-2018,04:00,5.44747,R,ugm-3,15.97698,R,ugm-3,24.32965,R,ugm-3,9.000,R,ugm-3 (BAM)
07-01-2018,05:00,6.84101,R,ugm-3,22.86190,R,ugm-3,33.35130,R,ugm-3,7.000,R,ugm-3 (BAM)
07-01-2018,06:00,5.16243,R,ugm-3,16.31807,R,ugm-3,24.23368,R,ugm-3,6.000,R,ugm-3 (BAM)
07-01-2018,07:00,11.05329,R,ugm-3,26.33656,R,ugm-3,43.28470,R,ugm-3,5.000,R,ugm-3 (BAM)
07-01-2018,08:00,15.01221,R,ugm-3,36.29413,R,ugm-3,59.31252,R,ugm-3,8.000,R,ugm-3 (BAM)
07-01-2018,09:00,40.28593,R,ugm-3,51.28761,R,ugm-3,113.05850,R,ugm-3,6.000,R,ugm-3 (BAM)
07-01-2018,10:00,27.71241,R,ugm-3,48.68444,R,ugm-3,91.17621,R,ugm-3,6.000,R,ugm-3 (BAM)
07-01-2018,11:00,24.32358,R,ugm-3,42.31559,R,ugm-3,79.61122,R,ugm-3,7.000,R,ugm-3 (BAM)
07-01-2018,12:00,30.30946,R,ugm-3,34.57700,R,ugm-3,81.05085,R,ugm-3,5.000,R,ugm-3 (BAM)
07-01-2018,13:00,26.50890,R,ugm-3,40.54840,R,ugm-3,81.19481,R,ugm-3,5.000,R,ugm-3 (BAM)
07-01-2018,14:00,36.61205,R,ugm-3,46.98739,R,ugm-3,103.12509,R,ugm-3,8.000,R,ugm-3 (BAM)
07-01-2018,15:00,36.07364,R,ugm-3,46.13339,R,ugm-3,101.44553,R,ugm-3,8.000,R,ugm-3 (BAM)
07-01-2018,16:00,53.71457,R,ugm-3,62.03313,R,ugm-3,144.39432,R,ugm-3,8.000,R,ugm-3 (BAM)
07-01-2018,17:00,31.98804,R,ugm-3,59.73997,R,ugm-3,108.78761,R,ugm-3,28.000,R,ugm-3 (BAM)
07-01-2018,18:00,71.70388,R,ugm-3,85.89248,R,ugm-3,195.83689,R,ugm-3,21.000,R,ugm-3 (BAM)
07-01-2018,19:00,85.79762,R,ugm-3,87.98819,R,ugm-3,219.54271,R,ugm-3,25.000,R,ugm-3 (BAM)
07-01-2018,20:00,172.95710,R,ugm-3,95.95656,R,ugm-3,361.15375,R,ugm-3,28.000,R,ugm-3 (BAM)
07-01-2018,21:00,63.59602,R,ugm-3,80.76094,R,ugm-3,178.27348,R,ugm-3,25.000,R,ugm-3 (BAM)
07-01-2018,22:00,89.43982,R,ugm-3,79.09243,R,ugm-3,216.23157,R,ugm-3,19.000,R,ugm-3 (BAM)
07-01-2018,23:00,37.97392,R,ugm-3,67.78925,R,ugm-3,126.01512,R,ugm-3,23.000,R,ugm-3 (BAM)
07-01-2018,24:00,80.85689,R,ugm-3,77.28064,R,ugm-3,201.25948,R,ugm-3,18.000,R,ugm-3 (BAM)
08-01-2018,01:00,62.64378,R,ugm-3,68.51392,R,ugm-3,164.56638,R,ugm-3,41.000,R,ugm-3 (BAM)
08-01-2018,02:00,30.66715,R,ugm-3,53.21532,R,ugm-3,100.23763,R,ugm-3,10.000,R,ugm-3 (BAM)
08-01-2018,03:00,28.89302,R,ugm-3,47.72650,R,ugm-3,92.02852,R,ugm-3,9.000,R,ugm-3 (BAM)
08-01-2018,04:00,26.07342,R,ugm-3,44.56082,R,ugm-3,84.53950,R,ugm-3,8.000,R,ugm-3 (BAM)
08-01-2018,05:00,9.44092,R,ugm-3,33.19461,R,ugm-3,47.67048,R,ugm-3,8.000,R,ugm-3 (BAM)
08-01-2018,06:00,87.69285,R,ugm-3,68.79915,R,ugm-3,203.25964,R,ugm-3,11.000,R,ugm-3 (BAM)
08-01-2018,07:00,191.79642,R,ugm-3,100.72194,R,ugm-3,394.80569,R,ugm-3,14.000,R,ugm-3 (BAM)
08-01-2018,08:00,378.04868,R,ugm-3,155.88947,R,ugm-3,735.55603,R,ugm-3,28.000,R,ugm-3 (BAM)
08-01-2018,09:00,398.54625,R,ugm-3,163.10556,R,ugm-3,774.20128,R,ugm-3,20.000,R,ugm-3 (BAM)
08-01-2018,10:00,346.55782,R,ugm-3,141.14220,R,ugm-3,672.52346,R,ugm-3,33.000,R,ugm-3 (BAM)
08-01-2018,11:00,163.94887,R,ugm-3,100.88714,R,ugm-3,352.27191,R,ugm-3,16.000,R,ugm-3 (BAM)
08-01-2018,12:00,65.70627,R,ugm-3,64.92232,R,ugm-3,165.67053,R,ugm-3,7.000,R,ugm-3 (BAM)
08-01-2018,13:00,53.28734,R,ugm-3,57.65683,R,ugm-3,139.36295,R,ugm-3,14.000,R,ugm-3 (BAM)
08-01-2018,14:00,73.59483,R,ugm-3,67.70872,R,ugm-3,180.55255,R,ugm-3,11.000,R,ugm-3 (BAM)
08-01-2018,15:00,80.88144,R,ugm-3,77.51492,R,ugm-3,201.53141,R,ugm-3,13.000,R,ugm-3 (BAM)
08-01-2018,16:00,77.64999,R,ugm-3,76.03688,R,ugm-3,195.09853,R,ugm-3,16.000,R,ugm-3 (BAM)
08-01-2018,17:00,61.96792,R,ugm-3,58.79676,R,ugm-3,153.81292,R,ugm-3,16.000,R,ugm-3 (BAM)
08-01-2018,18:00,81.45170,R,ugm-3,71.21580,R,ugm-3,196.10667,R,ugm-3,17.000,R,ugm-3 (BAM)
08-01-2018,19:00,68.55756,R,ugm-3,56.85390,R,ugm-3,161.97403,R,ugm-3,20.000,R,ugm-3 (BAM)
08-01-2018,20:00,83.28920,R,ugm-3,71.56678,R,ugm-3,199.27510,R,ugm-3,21.000,R,ugm-3 (BAM)
08-01-2018,21:00,96.59519,R,ugm-3,69.88708,R,ugm-3,217.99765,R,ugm-3,19.000,R,ugm-3 (BAM)
08-01-2018,22:00,48.25007,R,ugm-3,60.91593,R,ugm-3,134.89834,R,ugm-3,17.000,R,ugm-3 (BAM)
08-01-2018,23:00,42.23070,R,ugm-3,48.73460,R,ugm-3,113.48743,R,ugm-3,17.000,R,ugm-3 (BAM)
08-01-2018,24:00,13.62281,R,ugm-3,25.43829,R,ugm-3,46.32630,R,ugm-3,15.000,R,ugm-3 (BAM)
09-01-2018,01:00,8.53532,R,ugm-3,21.17093,R,ugm-3,34.25825,R,ugm-3,16.000,R,ugm-3 (BAM)
09-01-2018,02:00,3.63385,R,ugm-3,15.30329,R,ugm-3,20.87512,R,ugm-3,19.000,R,ugm-3 (BAM)
09-01-2018,03:00,3.58103,R,ugm-3,17.56144,R,ugm-3,23.05228,R,ugm-3,23.000,R,ugm-3 (BAM)
09-01-2018,04:00,3.92963,R,ugm-3,21.06108,R,ugm-3,27.08643,R,ugm-3,22.000,R,ugm-3 (BAM)
09-01-2018,05:00,10.71141,R,ugm-3,19.21105,R,ugm-3,35.63498,R,ugm-3,24.000,R,ugm-3 (BAM)
09-01-2018,06:00,20.97915,R,ugm-3,30.55383,R,ugm-3,62.72141,R,ugm-3,27.000,R,ugm-3 (BAM)
09-01-2018,07:00,37.07796,R,ugm-3,47.21936,R,ugm-3,104.07143,R,ugm-3,25.000,R,ugm-3 (BAM)
09-01-2018,08:00,64.77550,R,ugm-3,53.25621,R,ugm-3,152.57727,R,ugm-3,32.000,R,ugm-3 (BAM)
09-01-2018,09:00,91.96600,R,ugm-3,64.72901,R,ugm-3,205.74158,R,ugm-3,30.000,R,ugm-3 (BAM)
09-01-2018,10:00,67.62765,R,ugm-3,60.50517,R,ugm-3,164.19946,R,ugm-3,31.000,R,ugm-3 (BAM)
09-01-2018,11:00,49.84925,R,ugm-3,49.87283,R,ugm-3,126.30727,R,ugm-3,29.000,R,ugm-3 (BAM)
09-01-2018,12:00,47.63091,R,ugm-3,40.16325,R,ugm-3,113.19629,R,ugm-3,29.000,R,ugm-3 (BAM)
09-01-2018,13:00,60.52897,R,ugm-3,53.13995,R,ugm-3,145.94974,R,ugm-3,35.000,R,ugm-3 (BAM)
09-01-2018,14:00,101.72669,R,ugm-3,59.94425,R,ugm-3,215.92301,R,ugm-3,25.000,R,ugm-3 (BAM)
09-01-2018,15:00,79.60668,R,ugm-3,57.93799,R,ugm-3,179.99987,R,ugm-3,22.000,R,ugm-3 (BAM)
09-01-2018,16:00,89.20892,R,ugm-3,64.34602,R,ugm-3,201.13113,R,ugm-3,31.000,R,ugm-3 (BAM)
09-01-2018,17:00,103.18446,R,ugm-3,55.21171,R,ugm-3,213.42568,R,ugm-3,32.000,R,ugm-3 (BAM)
09-01-2018,18:00,105.02251,R,ugm-3,61.27813,R,ugm-3,222.31041,R,ugm-3,29.000,R,ugm-3 (BAM)
09-01-2018,19:00,82.49053,R,ugm-3,57.21413,R,ugm-3,183.69784,R,ugm-3,28.000,R,ugm-3 (BAM)
09-01-2018,20:00,108.09650,R,ugm-3,62.80808,R,ugm-3,228.55373,R,ugm-3,28.000,R,ugm-3 (BAM)
09-01-2018,21:00,86.07156,R,ugm-3,58.73503,R,ugm-3,190.70958,R,ugm-3,34.000,R,ugm-3 (BAM)
09-01-2018,22:00,74.78972,R,ugm-3,49.47546,R,ugm-3,164.15143,R,ugm-3,30.000,R,ugm-3 (BAM)
09-01-2018,23:00,96.87804,R,ugm-3,52.10662,R,ugm-3,200.65087,R,ugm-3,29.000,R,ugm-3 (BAM)
09-01-2018,24:00,69.75092,R,ugm-3,47.30824,R,ugm-3,154.25816,R,ugm-3,26.000,R,ugm-3 (BAM)
10-01-2018,01:00,69.65585,R,ugm-3,50.52600,R,ugm-3,157.33015,R,ugm-3,27.000,R,ugm-3 (BAM)
10-01-2018,02:00,68.30331,R,ugm-3,45.23302,R,ugm-3,149.96331,R,ugm-3,30.000,R,ugm-3 (BAM)
10-01-2018,03:00,55.19001,R,ugm-3,43.65567,R,ugm-3,128.27916,R,ugm-3,30.000,R,ugm-3 (BAM)
10-01-2018,04:00,50.33988,R,ugm-3,38.36060,R,ugm-3,115.54734,R,ugm-3,29.000,R,ugm-3 (BAM)
10-01-2018,05:00,61.68854,R,ugm-3,37.77518,R,ugm-3,132.36296,R,ugm-3,29.000,R,ugm-3 (BAM)
10-01-2018,06:00,124.04279,R,ugm-3,44.21346,R,ugm-3,234.40975,R,ugm-3,35.000,R,ugm-3 (BAM)
10-01-2018,07:00,194.76588,R,ugm-3,65.15709,R,ugm-3,363.79394,R,ugm-3,33.000,R,ugm-3 (BAM)
10-01-2018,08:00,309.48882,R,ugm-3,96.32340,R,ugm-3,570.86630,R,ugm-3,35.000,R,ugm-3 (BAM)
10-01-2018,09:00,375.71049,R,ugm-3,125.70654,R,ugm-3,701.78792,R,ugm-3,33.000,R,ugm-3 (BAM)
10-01-2018,10:00,274.20652,R,ugm-3,85.70604,R,ugm-3,506.15018,R,ugm-3,28.000,R,ugm-3 (BAM)
10-01-2018,11:00,246.72247,R,ugm-3,78.21757,R,ugm-3,456.52008,R,ugm-3,37.000,R,ugm-3 (BAM)
10-01-2018,12:00,248.40258,R,ugm-3,83.85707,R,ugm-3,464.73571,R,ugm-3,24.000,R,ugm-3 (BAM)
10-01-2018,13:00,128.48081,R,ugm-3,67.48453,R,ugm-3,264.48569,R,ugm-3,20.000,R,ugm-3 (BAM)
10-01-2018,14:00,112.75753,R,ugm-3,77.08375,R,ugm-3,249.97621,R,ugm-3,22.000,R,ugm-3 (BAM)
10-01-2018,15:00,154.28476,R,ugm-3,89.99269,R,ugm-3,326.55935,R,ugm-3,31.000,R,ugm-3 (BAM)
10-01-2018,16:00,144.64790,R,ugm-3,90.25952,R,ugm-3,312.04987,R,ugm-3,29.000,R,ugm-3 (BAM)
10-01-2018,17:00,202.05692,R,ugm-3,120.80773,R,ugm-3,430.62402,R,ugm-3,25.000,R,ugm-3 (BAM)
10-01-2018,18:00,104.48378,R,ugm-3,84.67725,R,ugm-3,244.88348,R,ugm-3,28.000,R,ugm-3 (BAM)
10-01-2018,19:00,90.44060,R,ugm-3,71.95401,R,ugm-3,210.62766,R,ugm-3,24.000,R,ugm-3 (BAM)
10-01-2018,20:00,83.62506,R,ugm-3,71.06582,R,ugm-3,199.28913,R,ugm-3,23.000,R,ugm-3 (BAM)
10-01-2018,21:00,47.13816,R,ugm-3,51.53351,R,ugm-3,123.81101,R,ugm-3,17.000,R,ugm-3 (BAM)
10-01-2018,22:00,57.06032,R,ugm-3,56.73872,R,ugm-3,144.22998,R,ugm-3,19.000,R,ugm-3 (BAM)
10-01-2018,23:00,43.30244,R,ugm-3,49.58359,R,ugm-3,115.97974,R,ugm-3,20.000,R,ugm-3 (BAM)
10-01-2018,24:00,19.08351,R,ugm-3,36.65627,R,ugm-3,65.91723,R,ugm-3,17.000,R,ugm-3 (BAM)
11-01-2018,01:00,13.69863,R,ugm-3,33.91649,R,ugm-3,54.92077,R,ugm-3,22.000,R,ugm-3 (BAM)
11-01-2018,02:00,4.69305,R,ugm-3,26.89726,R,ugm-3,34.09317,R,ugm-3,22.000,R,ugm-3 (BAM)
11-01-2018,03:00,6.72248,R,ugm-3,22.32759,R,ugm-3,32.63524,R,ugm-3,12.000,R,ugm-3 (BAM)
11-01-2018,04:00,4.40766,R,ugm-3,15.06259,R,ugm-3,21.82091,R,ugm-3,15.000,R,ugm-3 (BAM)
11-01-2018,05:00,5.23212,R,ugm-3,14.56747,R,ugm-3,22.58993,R,ugm-3,11.000,R,ugm-3 (BAM)
11-01-2018,06:00,21.75292,R,ugm-3,29.60941,R,ugm-3,62.96342,R,ugm-3,10.000,R,ugm-3 (BAM)
11-01-2018,07:00,42.90335,R,ugm-3,46.10803,R,ugm-3,111.89225,R,ugm-3,15.000,R,ugm-3 (BAM)
11-01-2018,08:00,64.84653,R,ugm-3,52.30709,R,ugm-3,151.73704,R,ugm-3,16.000,R,ugm-3 (BAM)
11-01-2018,09:00,97.50761,R,ugm-3,59.75968,R,ugm-3,209.26927,R,ugm-3,19.000,R,ugm-3 (BAM)
11-01-2018,10:00,97.47590,R,ugm-3,61.53859,R,ugm-3,210.99956,R,ugm-3,23.000,R,ugm-3 (BAM)
11-01-2018,11:00,69.19077,R,ugm-3,61.65122,R,ugm-3,167.74225,R,ugm-3,13.000,R,ugm-3 (BAM)
11-01-2018,12:00,56.85566,R,ugm-3,57.39809,R,ugm-3,144.57555,R,ugm-3,9.000,R,ugm-3 (BAM)
11-01-2018,13:00,74.48630,R,ugm-3,59.34721,R,ugm-3,173.55795,R,ugm-3,15.000,R,ugm-3 (BAM)
11-01-2018,14:00,69.88838,R,ugm-3,60.19705,R,ugm-3,167.35774,R,ugm-3,16.000,R,ugm-3 (BAM)
11-01-2018,15:00,71.44216,R,ugm-3,63.58226,R,ugm-3,173.12538,R,ugm-3,17.000,R,ugm-3 (BAM)
11-01-2018,16:00,92.52918,R,ugm-3,69.84443,R,ugm-3,211.72052,R,ugm-3,18.000,R,ugm-3 (BAM)
11-01-2018,17:00,101.59818,R,ugm-3,62.61967,R,ugm-3,218.40137,R,ugm-3,17.000,R,ugm-3 (BAM)
11-01-2018,18:00,132.29326,R,ugm-3,76.49929,R,ugm-3,279.34612,R,ugm-3,27.000,R,ugm-3 (BAM)
11-01-2018,19:00,125.47565,R,ugm-3,67.10250,R,ugm-3,259.49582,R,ugm-3,25.000,R,ugm-3 (BAM)
11-01-2018,20:00,128.36124,R,ugm-3,64.50441,R,ugm-3,261.32224,R,ugm-3,28.000,R,ugm-3 (BAM)
11-01-2018,21:00,135.71792,R,ugm-3,68.55665,R,ugm-3,276.65455,R,ugm-3,25.000,R,ugm-3 (BAM)
11-01-2018,22:00,100.55175,R,ugm-3,53.12145,R,ugm-3,207.29866,R,ugm-3,30.000,R,ugm-3 (BAM)
11-01-2018,23:00,68.49315,R,ugm-3,51.13753,R,ugm-3,156.15890,R,ugm-3,31.000,R,ugm-3 (BAM)
11-01-2018,24:00,43.28387,R,ugm-3,43.12140,R,ugm-3,109.48907,R,ugm-3,35.000,R,ugm-3 (BAM)
12-01-2018,01:00,50.49730,R,ugm-3,42.13761,R,ugm-3,119.56573,R,ugm-3,37.000,R,ugm-3 (BAM)
12-01-2018,02:00,20.55418,R,ugm-3,36.37685,R,ugm-3,67.89282,R,ugm-3,29.000,R,ugm-3 (BAM)